sat.trackr.live / text

‹ back to catalog

STARLINK-36463

NORAD 67315 · 2026-002L

PAYLOAD ACTIVE UNKNOWN

§ Identity

Operator
Country
US
Launch date
2026-01-04
Launch site
AFETR
Launch vehicle
Mass (kg)
RCS (m²)

Purposes: comms

External: N2YO · Heavens-Above · Gunter

§ Orbital elements

Epoch: 2026-09-19T20:03:48.226176Z

Period
94.27 min
Inclination
43.0009°
Eccentricity
0.0001323
Mean motion
15.27583769 rev/d
Perigee alt
482.1 km
Apogee alt
483.9 km
Semi-major
6,861.2 km
B*
4.9388e-4
RAAN
308.6061°
Arg perigee
276.4424°
Mean anomaly
83.6277°
Rev number
4,083

§ Raw data

STARLINK-364631 67315U 26002L   26262.83597484  .00013354  00000+0  49388-3 0  99982 67315  43.0009 308.6061 0001323 276.4424  83.6277 15.27583769 40833

JSON: /api/v1/satellites/67315 · /tle

For live sub-satellite position, see the globe view (requires WebGL).

§ Visibility from observer

Set your observer location to see the next 7 days of passes ≥ 10°. The values pass through the URL so the page stays shareable.

No JS? Fill the form by hand. The geolocation button needs JavaScript.